[[{"header":{"parameterUnit":"m.s-1","parameterCategory":1,"la1":30.2991,"la2":30.254,"lo1":-89.0895,"lo2":-89.0444,"dy":0.0017,"dx":0.0017,"nx":28,"ny":28,"refTime":"2024-04-18T09:00:00:Z","depth":0,"parameterNumber":2,"parameterNumberName":"U-component_of_WINDS"},"data":[0,0,0,0,0,0,0,0,0,0,0,0,0,0,0,0,0,0,0,0,0,0,0,0,0,0,0,0,0,0,0,0,0,0,0,0,0,0,0,0,0,0,0,0,0,0,0,0,0,0,0,0,0,0,0,0,0,0,1.3033,1.3033,0,1.308,1.308,1.3081,1.3048,1.3046,1.3045,1.3043,1.3095,1.3097,1.31,0,0,0,0,0,0,0,0,0,0,0,0,0,1.2916,1.2918,1.3033,1.3033,1.3034,1.308,1.308,1.3081,1.3048,1.3046,1.3044,1.3043,1.3094,1.3097,1.31,0,0,0,0,0,0,0,0,0,0,0,0,0,1.2965,1.2919,1.3033,1.3023,1.3023,1.308,1.308,1.3081,1.3048,1.3046,1.3044,1.3042,1.3093,1.3097,1.3101,1.3171,0,0,1.3114,1.3115,0,0,0,0,0,0,0,0,1.2963,1.297,1.3024,1.3024,1.3023,1.3056,1.3058,1.3112,1.3049,1.3039,1.3043,1.3041,1.3084,1.3089,1.3102,1.3174,1.3176,1.3114,1.3116,1.3118,1.3119,0,0,0,0,0,0,0,1.2959,1.2968,1.3052,1.3025,1.3024,1.3017,1.3021,1.3068,1.3073,1.3039,1.3037,1.3043,1.3083,1.3098,1.3103,1.3177,1.3114,1.3117,1.312,1.3122,1.3306,1.3308,0,0,0,0,0,0,1.2956,1.2965,1.305,1.3053,1.2987,1.3021,1.3026,1.3048,1.3073,1.3074,1.3045,1.3041,1.3092,1.3099,1.3105,1.3187,1.3118,1.3122,1.3124,1.3304,1.3307,1.3309,0,0,0,0,0,0,1.2954,1.2964,1.3048,1.3008,1.3018,1.3025,1.305,1.305,1.3065,1.3077,1.3078,1.3059,1.3091,1.3099,1.3154,1.3189,1.3124,1.3128,1.3301,1.3304,1.3308,1.3354,0,0,0,0,0,0,1.2951,1.2964,1.299,1.3009,1.3021,1.3096,1.3052,1.3052,1.3072,1.3067,1.309,1.3092,1.309,1.3148,1.3158,1.3193,1.3131,1.3298,1.3302,1.3307,1.3349,1.3358,1.3366,0,0,0,0,0,1.2947,1.3002,1.2992,1.3002,1.3054,1.3098,1.3105,1.31,1.3075,1.3101,1.3109,1.3091,1.3183,1.3154,1.3165,1.3202,1.3295,1.3301,1.3306,1.3345,1.3357,1.3366,0,0,0,0,0,0,1.2989,1.3005,1.2993,1.3056,1.3076,1.3093,1.3126,1.3113,1.3141,1.3136,1.313,1.3135,1.3192,1.3203,1.317,1.327,1.3235,1.3243,1.3261,1.3272,1.3281,1.3276,1.3134,0,0,0,0,0,1.3005,1.3039,1.3052,1.3106,1.3117,1.312,1.3139,1.3133,1.3154,1.3163,1.3174,1.3196,1.3229,1.3251,1.3283,1.3351,1.3355,1.3381,1.339,1.3397,1.3404,1.3438,1.345,1.3327,1.3327,1.3327,0,0,1.304,1.3053,1.3075,1.3115,1.313,1.3165,1.3127,1.3167,1.3193,1.3169,1.3221,1.323,1.3254,1.3315,1.3342,1.3325,1.3438,1.3404,1.3409,1.3412,1.3445,1.3457,1.3467,1.3331,1.333,1.3329,0,0,1.3121,1.3134,1.318,1.3195,1.3217,1.3219,1.323,1.3248,1.3253,1.3304,1.3286,1.3318,1.3377,1.3393,1.341,1.3495,1.348,1.3506,1.3551,1.3585,1.3594,1.3603,1.3632,1.3643,1.3513,1.3513,1.3513,0,1.3161,1.3213,1.3206,1.3246,1.3264,1.3242,1.3288,1.3304,1.3336,1.3349,1.3329,1.34,1.3415,1.3478,1.3499,1.3513,1.3525,1.3503,1.3594,1.3602,1.361,1.3638,1.3649,1.3516,1.3515,1.3515,1.3515,0,1.3261,1.3298,1.3332,1.3361,1.3383,1.3427,1.3426,1.3449,1.3441,1.3445,1.3497,1.3514,1.3547,1.3562,1.3556,1.3625,1.3614,1.3594,1.3559,1.3625,1.365,1.3661,1.352,1.3519,1.3518,1.3517,0,0,1.337,1.3393,1.3406,1.3418,1.344,1.3468,1.3511,1.3542,1.3561,1.3584,1.3619,1.3668,1.3649,1.3668,1.3663,1.3693,1.3758,1.3669,1.367,1.3684,1.3833,1.3847,1.3859,1.3748,1.375,1.3752,1.3831,0,1.3451,1.3522,1.3516,1.3585,1.3618,1.3597,1.3633,1.3651,1.3655,1.3684,1.369,1.3724,1.3697,1.3708,1.3737,1.3744,1.3787,1.3738,1.378,1.3782,1.3773,1.3873,1.3888,1.3961,1.3841,1.3843,1.3844,0,1.3554,1.3578,1.3649,1.3665,1.3678,1.3711,1.3738,1.3767,1.3786,1.3787,1.3807,1.3797,1.3839,1.3803,1.3861,1.3828,1.3845,1.3851,1.3854,1.3856,1.3816,1.3877,1.3985,1.3995,1.386,1.3859,1.3858,0,1.3624,1.3675,1.3723,1.3735,1.3754,1.3778,1.3787,1.3804,1.3823,1.3847,1.3859,1.3889,1.3905,1.3929,1.3927,1.3901,1.3986,1.395,1.3987,1.3987,1.4005,1.4004,1.4116,1.4018,1.4018,1.4018,1.4018,0,1.3714,1.3758,1.3755,1.3784,1.3833,1.3826,1.3874,1.3881,1.3896,1.3927,1.3912,1.3941,1.3937,1.3967,1.3966,1.4013,1.4022,1.4023,1.4022,1.4024,1.4023,1.4034,1.4028,1.4021,1.402,1.402,1.4019,0,1.38,1.38,1.3851,1.3865,1.3869,1.3904,1.3916,1.3944,1.3947,1.3986,1.3995,1.3999,1.4033,1.4034,1.4073,1.4073,1.413,1.4124,1.4123,1.4121,1.4158,1.4154,1.4279,1.4295,1.4189,1.419,1.4191,0,1.3857,1.389,1.3907,1.3925,1.3936,1.3967,1.3985,1.3979,1.3999,1.4023,1.4048,1.408,1.4106,1.4161,1.4168,1.4198,1.4192,1.4234,1.4196,1.4196,1.419,1.4188,1.419,1.4241,1.4242,1.4243,1.4244,0,1.3957,1.3955,1.3981,1.4008,1.403,1.4051,1.407,1.4086,1.4083,1.4106,1.414,1.4159,1.4198,1.423,1.4259,1.4269,1.4256,1.4255,1.4265,1.4267,1.4264,1.4264,1.4141,1.4252,1.4252,1.4251,1.425,1.425,1.4029,1.4056,1.4072,1.4102,1.4115,1.4133,1.4159,1.4165,1.4192,1.4222,1.4218,1.4255,1.4273,1.4309,1.4322,1.4351,1.4337,1.4352,1.4355,1.4358,1.4361,1.426,1.4357,1.4357,1.4356,1.4356,1.4356,0,1.4127,1.4135,1.4163,1.4189,1.4212,1.4197,1.4217,1.4237,1.427,1.4287,1.4311,1.4349,1.438,1.4389,1.4419,1.444,1.4435,1.4448,1.4446,1.4448,1.4374,1.4361,1.4452,1.4452,1.4452,1.4452,1.4452,1.4452,1.418,1.4225,1.4224,1.4276,1.4284,1.4319,1.4332,1.4348,1.4362,1.4404,1.4429,1.4434,1.4448,1.4478,1.4505,1.4507,1.4518,1.4534,1.4533,1.4463,1.4454,1.4444,1.4433,1.4536,1.4537,1.4605,1.4605,1.4606]},{"header":{"parameterUnit":"m.s-1","parameterCategory":1,"la1":30.2991,"la2":30.254,"lo1":-89.0895,"lo2":-89.0444,"dy":0.0017,"dx":0.0017,"nx":28,"ny":28,"refTime":"2024-04-18T09:00:00:Z","depth":0,"parameterNumber":3,"parameterNumberName":"V-component_of_WINDS"},"data":[0,0,0,0,0,0,0,0,0,0,0,0,0,0,0,0,0,0,0,0,0,0,0,0,0,0,0,0,0,0,0,0,0,0,0,0,0,0,0,0,0,0,0,0,0,0,0,0,0,0,0,0,0,0,0,0,0,0,2.7002,2.7002,0,2.7004,2.7005,2.7005,2.6981,2.6981,2.698,2.6979,2.6981,2.6982,2.6982,0,0,0,0,0,0,0,0,0,0,0,0,0,2.6976,2.6977,2.7002,2.7002,2.7002,2.7004,2.7005,2.7005,2.6981,2.6981,2.698,2.6979,2.6981,2.6982,2.6982,0,0,0,0,0,0,0,0,0,0,0,0,0,2.6984,2.6977,2.7002,2.6991,2.699,2.7004,2.7005,2.7005,2.6982,2.6981,2.698,2.6979,2.6981,2.6982,2.6983,2.7008,0,0,2.6986,2.6986,0,0,0,0,0,0,0,0,2.6984,2.6985,2.6993,2.6992,2.6991,2.6992,2.6996,2.7006,2.6982,2.6985,2.6979,2.6978,2.6985,2.6986,2.6988,2.7008,2.7008,2.6986,2.6986,2.6987,2.6987,0,0,0,0,0,0,0,2.6983,2.6985,2.7003,2.6993,2.6992,2.6985,2.6985,2.6998,2.699,2.6984,2.6983,2.6983,2.6985,2.6988,2.6988,2.7008,2.6986,2.6986,2.6987,2.6987,2.7047,2.7048,0,0,0,0,0,0,2.6984,2.6985,2.7003,2.7003,2.6985,2.6987,2.6987,2.6992,2.699,2.6989,2.6984,2.6982,2.6986,2.6987,2.6988,2.7016,2.6987,2.6987,2.6988,2.7046,2.7047,2.7048,0,0,0,0,0,0,2.6984,2.6986,2.7003,2.6993,2.6995,2.6988,2.6995,2.6993,2.6996,2.699,2.6988,2.6989,2.6986,2.6987,2.7003,2.7016,2.6988,2.6989,2.7045,2.7046,2.7048,2.7074,0,0,0,0,0,0,2.6983,2.6986,2.6996,2.6994,2.6996,2.7018,2.6995,2.6994,2.6997,2.6995,2.6994,2.6993,2.6985,2.7002,2.7004,2.7017,2.699,2.7043,2.7045,2.7047,2.7072,2.7076,2.708,0,0,0,0,0,2.6982,2.7003,2.6996,2.6999,2.7008,2.7019,2.702,2.7011,2.6999,2.7008,2.7004,2.6993,2.7015,2.7003,2.7006,2.7019,2.7043,2.7045,2.7047,2.707,2.7075,2.708,0,0,0,0,0,0,2.7007,2.7003,2.6995,2.7016,2.7018,2.7015,2.7026,2.7017,2.7022,2.7019,2.7008,2.7008,2.7025,2.7024,2.7012,2.7043,2.7026,2.7029,2.7043,2.7048,2.7052,2.7051,2.699,0,0,0,0,0,2.7015,2.7024,2.702,2.7039,2.704,2.7033,2.7037,2.7031,2.7032,2.7032,2.703,2.7031,2.7038,2.7043,2.705,2.7072,2.7071,2.7083,2.7087,2.709,2.7092,2.7103,2.7108,2.7056,2.7056,2.7056,0,0,2.7031,2.703,2.7036,2.7044,2.7044,2.7054,2.7034,2.7045,2.7052,2.7034,2.7048,2.7047,2.7048,2.7067,2.7075,2.7066,2.7106,2.7093,2.7096,2.7096,2.7105,2.711,2.7115,2.7057,2.7057,2.7057,0,0,2.7065,2.7065,2.708,2.7082,2.7083,2.7078,2.7082,2.708,2.7078,2.7093,2.7079,2.7087,2.71,2.7101,2.7103,2.7138,2.7127,2.714,2.7161,2.7171,2.7175,2.7179,2.719,2.7194,2.7143,2.7143,2.7143,0,2.7084,2.7098,2.7089,2.7101,2.7104,2.7089,2.7104,2.7106,2.7109,2.7111,2.7102,2.7117,2.7117,2.7135,2.7143,2.7146,2.7149,2.714,2.7176,2.7179,2.7182,2.7193,2.7197,2.7144,2.7144,2.7144,2.7144,0,2.7122,2.7132,2.7144,2.7147,2.7152,2.7166,2.7158,2.7164,2.7157,2.7153,2.7168,2.7167,2.7172,2.7177,2.717,2.7194,2.7188,2.7178,2.716,2.7189,2.7198,2.7202,2.7147,2.7146,2.7146,2.7145,0,0,2.717,2.7169,2.7173,2.7174,2.7174,2.7182,2.7194,2.72,2.7205,2.7208,2.7217,2.7229,2.7218,2.7221,2.7214,2.7224,2.725,2.7212,2.7211,2.7217,2.7275,2.7282,2.7287,2.7243,2.7244,2.7244,2.7274,0,2.7202,2.7223,2.7216,2.7237,2.7246,2.7232,2.7242,2.7244,2.7241,2.7247,2.7244,2.7251,2.7238,2.7239,2.7248,2.7245,2.7261,2.7243,2.7251,2.7251,2.7249,2.7292,2.7299,2.7328,2.7278,2.7279,2.7279,0,2.7242,2.7246,2.7269,2.7267,2.727,2.728,2.7284,2.7291,2.7292,2.7289,2.7292,2.7283,2.7295,2.7279,2.7294,2.7282,2.7285,2.7284,2.7285,2.7284,2.7266,2.7291,2.7337,2.7341,2.7285,2.7285,2.7284,0,2.7273,2.7285,2.7299,2.7301,2.73,2.7307,2.7307,2.7307,2.731,2.7314,2.7316,2.7322,2.7324,2.7328,2.7321,2.731,2.7337,2.7321,2.7334,2.7334,2.7339,2.7339,2.7385,2.7344,2.7344,2.7344,2.7344,0,2.7308,2.7322,2.7313,2.7322,2.7337,2.7328,2.7343,2.7341,2.7342,2.735,2.7338,2.7346,2.7337,2.7343,2.7338,2.7351,2.7352,2.735,2.7348,2.735,2.735,2.7351,2.7348,2.7345,2.7345,2.7344,2.7344,0,2.7345,2.734,2.7354,2.7352,2.7352,2.7363,2.7361,2.7369,2.7365,2.7375,2.7377,2.7372,2.7379,2.7372,2.7379,2.7376,2.7393,2.7389,2.7392,2.739,2.7404,2.7402,2.7451,2.7456,2.7413,2.7413,2.7414,0,2.7367,2.7378,2.7377,2.7381,2.7382,2.7389,2.7393,2.7385,2.7389,2.7391,2.7399,2.7405,2.7409,2.7422,2.7418,2.7423,2.7418,2.7435,2.7419,2.742,2.7417,2.7416,2.7416,2.7438,2.7438,2.7439,2.7439,0,2.7407,2.7404,2.741,2.7415,2.7419,2.7423,2.7425,2.743,2.7422,2.7427,2.7434,2.7438,2.7445,2.7451,2.7455,2.7454,2.7445,2.7444,2.7447,2.7449,2.745,2.7448,2.7399,2.7443,2.7442,2.7442,2.7442,2.7442,2.7436,2.7444,2.7444,2.7451,2.7452,2.7455,2.7462,2.746,2.7466,2.7471,2.7466,2.7474,2.7475,2.7479,2.748,2.7486,2.7479,2.7484,2.7485,2.7486,2.7488,2.745,2.7487,2.7487,2.7487,2.7487,2.7487,0,2.7473,2.7473,2.748,2.7484,2.7489,2.748,2.7483,2.7488,2.7495,2.7497,2.7502,2.751,2.7516,2.7513,2.7518,2.7523,2.7519,2.7525,2.7524,2.7523,2.7494,2.749,2.7528,2.7528,2.7528,2.7528,2.7528,2.7528,2.7494,2.7507,2.7504,2.7517,2.7517,2.7525,2.7527,2.7529,2.753,2.754,2.7545,2.7543,2.7542,2.7547,2.7552,2.7551,2.7553,2.756,2.7557,2.753,2.7526,2.7522,2.7518,2.7561,2.7561,2.7586,2.7586,2.7586]}]]